[Date Prev][Date Next][Thread Prev][Thread Next] - [Date Index][Thread Index][Author Index]
2 Line ISS Keps 1-22
- Subject: [sarex] 2 Line ISS Keps 1-22
- From: "Dave Larsen PhD" <doc@xxxxxxxxxxx>
- Date: Sat, 22 Jan 2005 03:19:24 -0800
ISS
1 25544U 98067A 05022.27589240 .00027199 00000-0 22378-3 0 6457
2 25544 51.6468 286.9329 0009634 17.5113 77.6822 15.70140016352749
----
Via the sarex mailing list at AMSAT.ORG courtesy of AMSAT-NA.
To unsubscribe, send "unsubscribe sarex" to Majordomo@amsat.org
AMSAT Home